Year,Month,Day,Hour,Minute,Value (Times are PST for temperature in C)
2015,09,23,00,00,7.40
2015,09,23,00,01,7.40
2015,09,23,00,02,7.40
2015,09,23,00,03,7.40
2015,09,23,00,04,7.40
2015,09,23,00,05,7.40
2015,09,23,00,06,7.40
2015,09,23,00,07,7.40
2015,09,23,00,08,7.40
2015,09,23,00,09,7.40
2015,09,23,00,10,7.40
2015,09,23,00,11,7.40
2015,09,23,00,12,7.40
2015,09,23,00,13,7.40
2015,09,23,00,14,7.40
2015,09,23,00,15,7.40
2015,09,23,00,16,7.40
2015,09,23,00,17,7.40
2015,09,23,00,18,7.40
2015,09,23,00,19,7.30
2015,09,23,00,20,7.30
2015,09,23,00,21,7.30
2015,09,23,00,22,7.30
2015,09,23,00,23,7.30
2015,09,23,00,24,7.30
2015,09,23,00,25,7.30
2015,09,23,00,26,7.30
2015,09,23,00,27,7.30
2015,09,23,00,28,7.30
2015,09,23,00,29,7.30
2015,09,23,00,30,7.30
2015,09,23,00,31,7.30
2015,09,23,00,32,7.30
2015,09,23,00,33,7.30
2015,09,23,00,34,7.30
2015,09,23,00,35,7.30
2015,09,23,00,36,7.30
2015,09,23,00,37,7.30
2015,09,23,00,38,7.30
2015,09,23,00,39,7.30
2015,09,23,00,40,7.30
2015,09,23,00,41,7.30
2015,09,23,00,42,7.30
2015,09,23,00,43,7.30
2015,09,23,00,44,7.30
2015,09,23,00,45,7.30
2015,09,23,00,46,7.30
2015,09,23,00,47,7.30
2015,09,23,00,48,7.30
2015,09,23,00,49,7.30
2015,09,23,00,50,7.30
2015,09,23,00,51,7.30
2015,09,23,00,52,7.30
2015,09,23,00,53,7.30
2015,09,23,00,54,7.30
2015,09,23,00,55,7.30
2015,09,23,00,56,7.30
2015,09,23,00,57,7.30
2015,09,23,00,58,7.30
2015,09,23,00,59,7.30
2015,09,23,01,00,7.30
2015,09,23,01,01,7.30
2015,09,23,01,02,7.30
2015,09,23,01,03,7.30
2015,09,23,01,04,7.30
2015,09,23,01,05,7.30
2015,09,23,01,06,7.30
2015,09,23,01,07,7.30
2015,09,23,01,08,7.30
2015,09,23,01,09,7.30
2015,09,23,01,10,7.30
2015,09,23,01,11,7.30
2015,09,23,01,12,7.30
2015,09,23,01,13,7.30
2015,09,23,01,14,7.20
2015,09,23,01,15,7.20
2015,09,23,01,16,7.20
2015,09,23,01,17,7.20
2015,09,23,01,18,7.20
2015,09,23,01,19,7.20
2015,09,23,01,20,7.20
2015,09,23,01,21,7.20
2015,09,23,01,22,7.20
2015,09,23,01,23,7.20
2015,09,23,01,24,7.20
2015,09,23,01,25,7.20
2015,09,23,01,26,7.20
2015,09,23,01,27,7.20
2015,09,23,01,28,7.20
2015,09,23,01,29,7.20
2015,09,23,01,30,7.20
2015,09,23,01,31,7.20
2015,09,23,01,32,7.20
2015,09,23,01,33,7.20
2015,09,23,01,34,7.20
2015,09,23,01,35,7.20
2015,09,23,01,36,7.20
2015,09,23,01,37,7.20
2015,09,23,01,38,7.10
2015,09,23,01,39,7.10
2015,09,23,01,40,7.10
2015,09,23,01,41,7.10
2015,09,23,01,42,7.10
2015,09,23,01,43,7.10
2015,09,23,01,44,7.10
2015,09,23,01,45,7.10
2015,09,23,01,46,7.10
2015,09,23,01,47,7.00
2015,09,23,01,48,7.00
2015,09,23,01,49,7.00
2015,09,23,01,50,7.00
2015,09,23,01,51,7.00
2015,09,23,01,52,7.00
2015,09,23,01,53,7.00
2015,09,23,01,54,6.90
2015,09,23,01,55,6.90
2015,09,23,01,56,6.90
2015,09,23,01,57,6.90
2015,09,23,01,58,6.90
2015,09,23,01,59,6.90
2015,09,23,02,00,6.90
2015,09,23,02,01,6.90
2015,09,23,02,02,6.90
2015,09,23,02,03,6.90
2015,09,23,02,04,6.90
2015,09,23,02,05,6.90
2015,09,23,02,06,6.90
2015,09,23,02,07,6.80
2015,09,23,02,08,6.80
2015,09,23,02,09,6.80
2015,09,23,02,10,6.80
2015,09,23,02,11,6.80
2015,09,23,02,12,6.80
2015,09,23,02,13,6.80
2015,09,23,02,14,6.80
2015,09,23,02,15,6.80
2015,09,23,02,16,6.70
2015,09,23,02,17,6.70
2015,09,23,02,18,6.70
2015,09,23,02,19,6.70
2015,09,23,02,20,6.70
2015,09,23,02,21,6.70
2015,09,23,02,22,6.70
2015,09,23,02,23,6.70
2015,09,23,02,24,6.70
2015,09,23,02,25,6.60
2015,09,23,02,26,6.60
2015,09,23,02,27,6.60
2015,09,23,02,28,6.60
2015,09,23,02,29,6.60
2015,09,23,02,30,6.60
2015,09,23,02,31,6.60
2015,09,23,02,32,6.60
2015,09,23,02,33,6.60
2015,09,23,02,34,6.60
2015,09,23,02,35,6.60
2015,09,23,02,36,6.60
2015,09,23,02,37,6.50
2015,09,23,02,38,6.50
2015,09,23,02,39,6.50
2015,09,23,02,40,6.50
2015,09,23,02,41,6.50
2015,09,23,02,42,6.50
2015,09,23,02,43,6.50
2015,09,23,02,44,6.40
2015,09,23,02,45,6.40
2015,09,23,02,46,6.40
2015,09,23,02,47,6.40
2015,09,23,02,48,6.40
2015,09,23,02,49,6.40
2015,09,23,02,50,6.40
2015,09,23,02,51,6.40
2015,09,23,02,52,6.40
2015,09,23,02,53,6.40
2015,09,23,02,54,6.40
2015,09,23,02,55,6.40
2015,09,23,02,56,6.40
2015,09,23,02,57,6.40
2015,09,23,02,58,6.30
2015,09,23,02,59,6.30
2015,09,23,03,00,6.30
2015,09,23,03,01,6.30
2015,09,23,03,02,6.30
2015,09,23,03,06,6.30
2015,09,23,03,07,6.20
2015,09,23,03,08,6.20
2015,09,23,03,09,6.20
2015,09,23,03,10,6.20
2015,09,23,03,11,6.20
2015,09,23,03,12,6.20
2015,09,23,03,13,6.20
2015,09,23,03,14,6.20
2015,09,23,03,15,6.20
2015,09,23,03,16,6.20
2015,09,23,03,17,6.10
2015,09,23,03,18,6.10
2015,09,23,03,19,6.10
2015,09,23,03,20,6.10
2015,09,23,03,21,6.10
2015,09,23,03,22,6.10
2015,09,23,03,23,6.10
2015,09,23,03,24,6.10
2015,09,23,03,25,6.10
2015,09,23,03,26,6.10
2015,09,23,03,27,6.10
2015,09,23,03,28,6.10
2015,09,23,03,29,6.10
2015,09,23,03,30,6.10
2015,09,23,03,31,6.10
2015,09,23,03,32,6.10
2015,09,23,03,33,6.00
2015,09,23,03,34,6.00
2015,09,23,03,35,6.00
2015,09,23,03,36,6.00
2015,09,23,03,37,6.00
2015,09,23,03,38,6.00
2015,09,23,03,39,6.00
2015,09,23,03,40,5.90
2015,09,23,03,41,5.90
2015,09,23,03,42,5.90
2015,09,23,03,43,5.90
2015,09,23,03,44,5.90
2015,09,23,03,45,5.90
2015,09,23,03,46,5.90
2015,09,23,03,47,5.90
2015,09,23,03,48,5.90
2015,09,23,03,49,5.90
2015,09,23,03,50,5.90
2015,09,23,03,51,5.90
2015,09,23,03,52,5.90
2015,09,23,03,53,5.80
2015,09,23,03,54,5.80
2015,09,23,03,55,5.80
2015,09,23,03,56,5.80
2015,09,23,03,57,5.80
2015,09,23,03,58,5.80
2015,09,23,03,59,5.80
2015,09,23,04,00,5.80
2015,09,23,04,01,5.80
2015,09,23,04,02,5.80
2015,09,23,04,03,5.80
2015,09,23,04,04,5.70
2015,09,23,04,05,5.70
2015,09,23,04,06,5.70
2015,09,23,04,07,5.70
2015,09,23,04,08,5.70
2015,09,23,04,09,5.70
2015,09,23,04,10,5.70
2015,09,23,04,11,5.60
2015,09,23,04,12,5.60
2015,09,23,04,13,5.60
2015,09,23,04,14,5.60
2015,09,23,04,15,5.60
2015,09,23,04,16,5.60
2015,09,23,04,17,5.50
2015,09,23,04,18,5.50
2015,09,23,04,19,5.50
2015,09,23,04,20,5.50
2015,09,23,04,21,5.50
2015,09,23,04,22,5.40
2015,09,23,04,23,5.40
2015,09,23,04,24,5.40
2015,09,23,04,25,5.40
2015,09,23,04,26,5.40
2015,09,23,04,27,5.40
2015,09,23,04,28,5.30
2015,09,23,04,29,5.30
2015,09,23,04,30,5.30
2015,09,23,04,31,5.30
2015,09,23,04,32,5.30
2015,09,23,04,33,5.30
2015,09,23,04,34,5.20
2015,09,23,04,35,5.20
2015,09,23,04,36,5.20
2015,09,23,04,37,5.20
2015,09,23,04,38,5.20
2015,09,23,04,39,5.20
2015,09,23,04,40,5.20
2015,09,23,04,41,5.20
2015,09,23,04,42,5.10
2015,09,23,04,43,5.10
2015,09,23,04,44,5.10
2015,09,23,04,45,5.10
2015,09,23,04,46,5.10
2015,09,23,04,47,5.10
2015,09,23,04,48,5.10
2015,09,23,04,49,5.10
2015,09,23,04,50,5.10
2015,09,23,04,51,5.10
2015,09,23,04,52,5.10
2015,09,23,04,53,5.10
2015,09,23,04,54,5.00
2015,09,23,04,55,5.00
2015,09,23,04,56,5.00
2015,09,23,04,57,5.00
2015,09,23,04,58,5.00
2015,09,23,04,59,5.00
2015,09,23,05,00,5.00
2015,09,23,05,01,4.90
2015,09,23,05,02,4.90
2015,09,23,05,03,4.90
2015,09,23,05,04,4.90
2015,09,23,05,05,4.90
2015,09,23,05,06,4.90
2015,09,23,05,07,4.90
2015,09,23,05,08,4.90
2015,09,23,05,09,4.90
2015,09,23,05,10,4.90
2015,09,23,05,11,4.90
2015,09,23,05,12,4.90
2015,09,23,05,13,4.90
2015,09,23,05,14,4.90
2015,09,23,05,15,4.80
2015,09,23,05,16,4.80
2015,09,23,05,17,4.80
2015,09,23,05,18,4.80
2015,09,23,05,19,4.80
2015,09,23,05,20,4.80
2015,09,23,05,21,4.80
2015,09,23,05,22,4.80
2015,09,23,05,23,4.80
2015,09,23,05,24,4.80
2015,09,23,05,25,4.80
2015,09,23,05,26,4.80
2015,09,23,05,27,4.80
2015,09,23,05,28,4.80
2015,09,23,05,29,4.80
2015,09,23,05,30,4.80
2015,09,23,05,31,4.80
2015,09,23,05,32,4.80
2015,09,23,05,33,4.80
2015,09,23,05,34,4.80
2015,09,23,05,35,4.80
2015,09,23,05,36,4.80
2015,09,23,05,37,4.80
2015,09,23,05,38,4.80
2015,09,23,05,39,4.80
2015,09,23,05,40,4.80
2015,09,23,05,41,4.80
2015,09,23,05,42,4.80
2015,09,23,05,43,4.80
2015,09,23,05,44,4.80
2015,09,23,05,45,4.80
2015,09,23,05,46,4.80
2015,09,23,05,47,4.80
2015,09,23,05,48,4.80
2015,09,23,05,49,4.80
2015,09,23,05,50,4.80
2015,09,23,05,51,4.80
2015,09,23,05,52,4.70
2015,09,23,05,53,4.70
2015,09,23,05,54,4.70
2015,09,23,05,55,4.70
2015,09,23,05,56,4.80
2015,09,23,05,57,4.80
2015,09,23,05,58,4.80
2015,09,23,05,59,4.80
2015,09,23,06,00,4.80
2015,09,23,06,01,4.80
2015,09,23,06,02,4.80
2015,09,23,06,03,4.80
2015,09,23,06,04,4.80
2015,09,23,06,05,4.80
2015,09,23,06,06,4.80
2015,09,23,06,07,4.80
2015,09,23,06,08,4.80
2015,09,23,06,09,4.80
2015,09,23,06,10,4.80
2015,09,23,06,11,4.80
2015,09,23,06,12,4.80
2015,09,23,06,13,4.80
2015,09,23,06,14,4.80
2015,09,23,06,15,4.80
2015,09,23,06,16,4.80
2015,09,23,06,17,4.80
2015,09,23,06,18,4.80
2015,09,23,06,19,4.80
2015,09,23,06,20,4.80
2015,09,23,06,21,4.80
2015,09,23,06,22,4.80
2015,09,23,06,23,4.80
2015,09,23,06,24,4.90
2015,09,23,06,25,4.90
2015,09,23,06,26,4.90
2015,09,23,06,27,4.90
2015,09,23,06,28,4.90
2015,09,23,06,29,4.90
2015,09,23,06,30,4.90
2015,09,23,06,31,4.80
2015,09,23,06,32,4.80
2015,09,23,06,33,4.80
2015,09,23,06,34,4.80
2015,09,23,06,35,4.80
2015,09,23,06,36,4.80
2015,09,23,06,37,4.80
2015,09,23,06,38,4.80
2015,09,23,06,39,4.80
2015,09,23,06,40,4.80
2015,09,23,06,41,4.80
2015,09,23,06,42,4.80
2015,09,23,06,43,4.80
2015,09,23,06,44,4.80
2015,09,23,06,45,4.70
2015,09,23,06,46,4.70
2015,09,23,06,47,4.70
2015,09,23,06,48,4.70
2015,09,23,06,49,4.70
2015,09,23,06,50,4.70
2015,09,23,06,51,4.70
2015,09,23,06,52,4.70
2015,09,23,06,53,4.70
2015,09,23,06,54,4.70
2015,09,23,06,55,4.70
2015,09,23,06,56,4.60
2015,09,23,06,57,4.60
2015,09,23,06,58,4.60
2015,09,23,06,59,4.60
2015,09,23,07,00,4.60
2015,09,23,07,01,4.60
2015,09,23,07,02,4.60
2015,09,23,07,03,4.60
2015,09,23,07,04,4.50
2015,09,23,07,05,4.50
2015,09,23,07,06,4.50
2015,09,23,07,07,4.50
2015,09,23,07,08,4.50
2015,09,23,07,09,4.50
2015,09,23,07,10,4.50
2015,09,23,07,11,4.50
2015,09,23,07,12,4.50
2015,09,23,07,13,4.50
2015,09,23,07,14,4.50
2015,09,23,07,15,4.50
2015,09,23,07,16,4.50
2015,09,23,07,17,4.50
2015,09,23,07,18,4.50
2015,09,23,07,19,4.50
2015,09,23,07,20,4.50
2015,09,23,07,21,4.50
2015,09,23,07,22,4.50
2015,09,23,07,23,4.50
2015,09,23,07,24,4.50
2015,09,23,07,25,4.50
2015,09,23,07,26,4.50
2015,09,23,07,27,4.50
2015,09,23,07,28,4.50
2015,09,23,07,29,4.50
2015,09,23,07,30,4.50
2015,09,23,07,31,4.50
2015,09,23,07,32,4.50
2015,09,23,07,33,4.50
2015,09,23,07,34,4.50
2015,09,23,07,35,4.50
2015,09,23,07,36,4.50
2015,09,23,07,37,4.50
2015,09,23,07,38,4.50
2015,09,23,07,39,4.60
2015,09,23,07,40,4.60
2015,09,23,07,41,4.60
2015,09,23,07,42,4.60
2015,09,23,07,43,4.60
2015,09,23,07,44,4.60
2015,09,23,07,45,4.60
2015,09,23,07,46,4.60
2015,09,23,07,47,4.60
2015,09,23,07,48,4.60
2015,09,23,07,49,4.60
2015,09,23,07,50,4.60
2015,09,23,07,51,4.70
2015,09,23,07,52,4.70
2015,09,23,07,53,4.70
2015,09,23,07,54,4.70
2015,09,23,07,55,4.70
2015,09,23,07,56,4.70
2015,09,23,07,57,4.70
2015,09,23,07,58,4.80
2015,09,23,07,59,4.80
2015,09,23,08,00,4.80
2015,09,23,08,01,4.80
2015,09,23,08,02,4.80
2015,09,23,08,03,4.80
2015,09,23,08,04,4.80
2015,09,23,08,05,4.80
2015,09,23,08,06,4.80
2015,09,23,08,07,4.90
2015,09,23,08,08,4.90
2015,09,23,08,09,4.90
2015,09,23,08,10,4.90
2015,09,23,08,11,5.00
2015,09,23,08,12,5.00
2015,09,23,08,13,5.00
2015,09,23,08,14,5.10
2015,09,23,08,15,5.10
2015,09,23,08,16,5.10
2015,09,23,08,17,5.10
2015,09,23,08,18,5.20
2015,09,23,08,19,5.20
2015,09,23,08,20,5.30
2015,09,23,08,21,5.30
2015,09,23,08,22,5.40
2015,09,23,08,23,5.40
2015,09,23,08,24,5.40
2015,09,23,08,25,5.50
2015,09,23,08,26,5.60
2015,09,23,08,27,5.60
2015,09,23,08,28,5.70
2015,09,23,08,29,5.70
2015,09,23,08,30,5.80
2015,09,23,08,31,5.80
2015,09,23,08,32,5.90
2015,09,23,08,33,5.90
2015,09,23,08,34,6.00
2015,09,23,08,35,6.00
2015,09,23,08,36,6.10
2015,09,23,08,37,6.10
2015,09,23,08,38,6.20
2015,09,23,08,39,6.20
2015,09,23,08,40,6.30
2015,09,23,08,41,6.30
2015,09,23,08,42,6.30
2015,09,23,08,43,6.40
2015,09,23,08,44,6.40
2015,09,23,08,45,6.50
2015,09,23,08,46,6.50
2015,09,23,08,47,6.50
2015,09,23,08,48,6.60
2015,09,23,08,49,6.60
2015,09,23,08,50,6.60
2015,09,23,08,51,6.70
2015,09,23,08,52,6.70
2015,09,23,08,53,6.70
2015,09,23,08,54,6.80
2015,09,23,08,55,6.80
2015,09,23,08,56,6.80
2015,09,23,08,57,6.90
2015,09,23,08,58,6.90
2015,09,23,08,59,6.90
2015,09,23,09,00,7.00
2015,09,23,09,01,7.00
2015,09,23,09,02,7.00
2015,09,23,09,03,7.10
2015,09,23,09,04,7.10
2015,09,23,09,05,7.10
2015,09,23,09,06,7.20
2015,09,23,09,07,7.20
2015,09,23,09,08,7.20
2015,09,23,09,09,7.20
2015,09,23,09,10,7.20
2015,09,23,09,11,7.30
2015,09,23,09,12,7.40
2015,09,23,09,13,7.40
2015,09,23,09,14,7.50
2015,09,23,09,15,7.50
2015,09,23,09,16,7.60
2015,09,23,09,17,7.60
2015,09,23,09,18,7.70
2015,09,23,09,19,7.70
2015,09,23,09,20,7.80
2015,09,23,09,21,7.80
2015,09,23,09,22,7.80
2015,09,23,09,23,7.90
2015,09,23,09,24,7.90
2015,09,23,09,25,8.00
2015,09,23,09,26,8.00
2015,09,23,09,27,8.10
2015,09,23,09,28,8.10
2015,09,23,09,29,8.20
2015,09,23,09,30,8.20
2015,09,23,09,31,8.30
2015,09,23,09,32,8.30
2015,09,23,09,33,8.30
2015,09,23,09,34,8.40
2015,09,23,09,35,8.40
2015,09,23,09,36,8.50
2015,09,23,09,37,8.50
2015,09,23,09,38,8.60
2015,09,23,09,39,8.60
2015,09,23,09,40,8.60
2015,09,23,09,41,8.70
2015,09,23,09,42,8.80
2015,09,23,09,43,8.80
2015,09,23,09,44,8.90
2015,09,23,09,45,8.90
2015,09,23,09,46,9.00
2015,09,23,09,47,9.10
2015,09,23,09,48,9.20
2015,09,23,09,49,9.30
2015,09,23,09,50,9.40
2015,09,23,09,51,9.50
2015,09,23,09,52,9.60
2015,09,23,09,53,9.60
2015,09,23,09,54,9.70
2015,09,23,09,55,9.80
2015,09,23,09,56,9.90
2015,09,23,09,57,10.00
2015,09,23,09,58,10.00
2015,09,23,09,59,10.10
2015,09,23,10,00,10.20
2015,09,23,10,01,10.30
2015,09,23,10,02,10.30
2015,09,23,10,03,10.40
2015,09,23,10,04,10.50
2015,09,23,10,05,10.60
2015,09,23,10,06,10.60
2015,09,23,10,07,10.70
2015,09,23,10,08,10.80
2015,09,23,10,09,10.80
2015,09,23,10,10,10.90
2015,09,23,10,11,11.00
2015,09,23,10,12,11.10
2015,09,23,10,13,11.20
2015,09,23,10,14,11.20
2015,09,23,10,15,11.30
2015,09,23,10,16,11.40
2015,09,23,10,17,11.40
2015,09,23,10,18,11.50
2015,09,23,10,19,11.60
2015,09,23,10,20,11.70
2015,09,23,10,21,11.70
2015,09,23,10,22,11.70
2015,09,23,10,23,11.70
2015,09,23,10,24,11.80
2015,09,23,10,25,11.90
2015,09,23,10,26,11.90
2015,09,23,10,27,12.00
2015,09,23,10,28,12.10
2015,09,23,10,29,12.10
2015,09,23,10,30,12.20
2015,09,23,10,31,12.20
2015,09,23,10,32,12.20
2015,09,23,10,33,12.30
2015,09,23,10,34,12.30
2015,09,23,10,35,12.40
2015,09,23,10,36,12.50
2015,09,23,10,37,12.50
2015,09,23,10,38,12.60
2015,09,23,10,39,12.70
2015,09,23,10,40,12.70
2015,09,23,10,41,12.80
2015,09,23,10,42,12.80
2015,09,23,10,43,12.90
2015,09,23,10,44,13.00
2015,09,23,10,45,13.00
2015,09,23,10,46,13.10
2015,09,23,10,47,13.10
2015,09,23,10,48,13.20
2015,09,23,10,49,13.20
2015,09,23,10,50,13.30
2015,09,23,10,51,13.30
2015,09,23,10,52,13.40
2015,09,23,10,53,13.40
2015,09,23,10,54,13.40
2015,09,23,10,55,13.50
2015,09,23,10,56,13.50
2015,09,23,10,57,13.50
2015,09,23,10,58,13.50
2015,09,23,10,59,13.50
2015,09,23,11,00,13.50
2015,09,23,11,01,13.60
2015,09,23,11,02,13.60
2015,09,23,11,03,13.70
2015,09,23,11,04,13.70
2015,09,23,11,05,13.80
2015,09,23,11,06,13.80
2015,09,23,11,07,13.80
2015,09,23,11,08,13.80
2015,09,23,11,09,13.90
2015,09,23,11,10,13.90
2015,09,23,11,11,14.00
2015,09,23,11,12,14.00
2015,09,23,11,13,14.10
2015,09,23,11,14,14.10
2015,09,23,11,15,14.10
2015,09,23,11,16,14.20
2015,09,23,11,17,14.20
2015,09,23,11,18,14.20
2015,09,23,11,19,14.30
2015,09,23,11,20,14.30
2015,09,23,11,21,14.40
2015,09,23,11,22,14.40
2015,09,23,11,23,14.50
2015,09,23,11,24,14.50
2015,09,23,11,25,14.60
2015,09,23,11,26,14.60
2015,09,23,11,27,14.70
2015,09,23,11,28,14.70
2015,09,23,11,29,14.70
2015,09,23,11,30,14.80
2015,09,23,11,31,14.80
2015,09,23,11,32,14.80
2015,09,23,11,33,14.80
2015,09,23,11,34,14.90
2015,09,23,11,35,14.90
2015,09,23,11,36,14.80
2015,09,23,11,37,14.80
2015,09,23,11,38,14.80
2015,09,23,11,39,14.80
2015,09,23,11,40,14.80
2015,09,23,11,41,14.90
2015,09,23,11,42,14.80
2015,09,23,11,43,14.80
2015,09,23,11,44,14.80
2015,09,23,11,45,14.80
2015,09,23,11,46,14.80
2015,09,23,11,47,14.80
2015,09,23,11,48,14.80
2015,09,23,11,49,14.70
2015,09,23,11,50,14.70
2015,09,23,11,51,14.70
2015,09,23,11,52,14.70
2015,09,23,11,53,14.70
2015,09,23,11,54,14.70
2015,09,23,11,55,14.70
2015,09,23,11,56,14.60
2015,09,23,11,57,14.60
2015,09,23,11,58,14.60
2015,09,23,11,59,14.60
2015,09,23,12,00,14.60
2015,09,23,12,01,14.50
2015,09,23,12,02,14.50
2015,09,23,12,03,14.40
2015,09,23,12,04,14.40
2015,09,23,12,05,14.40
2015,09,23,12,06,14.40
2015,09,23,12,07,14.40
2015,09,23,12,08,14.30
2015,09,23,12,09,14.30
2015,09,23,12,10,14.30
2015,09,23,12,11,14.30
2015,09,23,12,12,14.20
2015,09,23,12,13,14.20
2015,09,23,12,14,14.20
2015,09,23,12,15,14.20
2015,09,23,12,16,14.20
2015,09,23,12,17,14.20
2015,09,23,12,18,14.10
2015,09,23,12,19,14.10
2015,09,23,12,20,14.10
2015,09,23,12,21,14.10
2015,09,23,12,22,14.00
2015,09,23,12,23,14.00
2015,09,23,12,24,14.00
2015,09,23,12,25,14.00
2015,09,23,12,26,14.00
2015,09,23,12,27,14.00
2015,09,23,12,28,14.00
2015,09,23,12,29,14.00
2015,09,23,12,30,14.00
2015,09,23,12,31,14.00
2015,09,23,12,32,14.00
2015,09,23,12,33,14.00
2015,09,23,12,34,14.00
2015,09,23,12,35,13.90
2015,09,23,12,36,13.90
2015,09,23,12,37,13.90
2015,09,23,12,38,13.90
2015,09,23,12,39,13.90
2015,09,23,12,40,13.90
2015,09,23,12,41,13.90
2015,09,23,12,42,13.90
2015,09,23,12,43,13.90
2015,09,23,12,44,13.90
2015,09,23,12,45,13.90
2015,09,23,12,46,13.90
2015,09,23,12,47,13.90
2015,09,23,12,48,13.80
2015,09,23,12,49,13.90
2015,09,23,12,50,13.90
2015,09,23,12,51,13.90
2015,09,23,12,52,13.90
2015,09,23,12,53,13.90
2015,09,23,12,54,14.00
2015,09,23,12,55,14.00
2015,09,23,12,56,14.00
2015,09,23,12,57,14.00
2015,09,23,12,58,14.10
2015,09,23,12,59,14.10
2015,09,23,13,00,14.10
2015,09,23,13,01,14.10
2015,09,23,13,02,14.20
2015,09,23,13,03,14.20
2015,09,23,13,04,14.20
2015,09,23,13,05,14.20
2015,09,23,13,06,14.30
2015,09,23,13,07,14.30
2015,09,23,13,08,14.30
2015,09,23,13,09,14.30
2015,09,23,13,10,14.30
2015,09,23,13,11,14.30
2015,09,23,13,12,14.30
2015,09,23,13,13,14.30
2015,09,23,13,14,14.40
2015,09,23,13,15,14.40
2015,09,23,13,16,14.40
2015,09,23,13,17,14.40
2015,09,23,13,18,14.40
2015,09,23,13,19,14.50
2015,09,23,13,20,14.50
2015,09,23,13,21,14.60
2015,09,23,13,22,14.60
2015,09,23,13,23,14.60
2015,09,23,13,24,14.70
2015,09,23,13,25,14.70
2015,09,23,13,26,14.80
2015,09,23,13,27,14.80
2015,09,23,13,28,14.80
2015,09,23,13,29,14.80
2015,09,23,13,30,14.90
2015,09,23,13,31,14.90
2015,09,23,13,32,15.00
2015,09,23,13,33,15.00
2015,09,23,13,34,15.00
2015,09,23,13,35,15.00
2015,09,23,13,36,15.00
2015,09,23,13,37,15.00
2015,09,23,13,38,15.10
2015,09,23,13,39,15.20
2015,09,23,13,40,15.30
2015,09,23,13,41,15.30
2015,09,23,13,42,15.40
2015,09,23,13,43,15.50
2015,09,23,13,44,15.50
2015,09,23,13,45,15.50
2015,09,23,13,46,15.60
2015,09,23,13,47,15.60
2015,09,23,13,48,15.60
2015,09,23,13,49,15.60
2015,09,23,13,50,15.60
2015,09,23,13,51,15.70
2015,09,23,13,52,15.70
2015,09,23,13,53,15.70
2015,09,23,13,54,15.70
2015,09,23,13,55,15.80
2015,09,23,13,56,15.80
2015,09,23,13,57,15.80
2015,09,23,13,58,15.90
2015,09,23,13,59,16.00
2015,09,23,14,00,16.00
2015,09,23,14,01,16.10
2015,09,23,14,02,16.10
2015,09,23,14,03,16.10
2015,09,23,14,04,16.10
2015,09,23,14,05,16.20
2015,09,23,14,06,16.20
2015,09,23,14,07,16.20
2015,09,23,14,08,16.20
2015,09,23,14,09,16.20
2015,09,23,14,10,16.20
2015,09,23,14,11,16.20
2015,09,23,14,12,16.30
2015,09,23,14,13,16.30
2015,09,23,14,14,16.30
2015,09,23,14,15,16.30
2015,09,23,14,16,16.40
2015,09,23,14,17,16.40
2015,09,23,14,18,16.40
2015,09,23,14,19,16.40
2015,09,23,14,20,16.40
2015,09,23,14,21,16.40
2015,09,23,14,22,16.40
2015,09,23,14,23,16.40
2015,09,23,14,24,16.40
2015,09,23,14,25,16.40
2015,09,23,14,26,16.40
2015,09,23,14,27,16.40
2015,09,23,14,28,16.40
2015,09,23,14,29,16.40
2015,09,23,14,30,16.40
2015,09,23,14,31,16.40
2015,09,23,14,32,16.40
2015,09,23,14,33,16.40
2015,09,23,14,34,16.40
2015,09,23,14,35,16.40
2015,09,23,14,36,16.40
2015,09,23,14,37,16.40
2015,09,23,14,38,16.40
2015,09,23,14,39,16.40
2015,09,23,14,40,16.30
2015,09,23,14,41,16.30
2015,09,23,14,42,16.30
2015,09,23,14,43,16.20
2015,09,23,14,44,16.20
2015,09,23,14,45,16.20
2015,09,23,14,46,16.20
2015,09,23,14,47,16.20
2015,09,23,14,48,16.20
2015,09,23,14,49,16.20
2015,09,23,14,50,16.20
2015,09,23,14,51,16.20
2015,09,23,14,52,16.10
2015,09,23,14,53,16.10
2015,09,23,14,54,16.20
2015,09,23,14,55,16.20
2015,09,23,14,56,16.20
2015,09,23,14,57,16.20
2015,09,23,14,58,16.20
2015,09,23,14,59,16.20
2015,09,23,15,00,16.20
2015,09,23,15,01,16.10
2015,09,23,15,02,16.10
2015,09,23,15,03,16.10
2015,09,23,15,04,16.10
2015,09,23,15,05,16.10
2015,09,23,15,06,16.00
2015,09,23,15,07,16.00
2015,09,23,15,08,16.00
2015,09,23,15,09,16.00
2015,09,23,15,10,16.00
2015,09,23,15,11,16.00
2015,09,23,15,12,16.00
2015,09,23,15,13,16.00
2015,09,23,15,14,16.00
2015,09,23,15,15,16.00
2015,09,23,15,16,16.10
2015,09,23,15,17,16.10
2015,09,23,15,18,16.10
2015,09,23,15,19,16.10
2015,09,23,15,20,16.10
2015,09,23,15,21,16.10
2015,09,23,15,22,16.10
2015,09,23,15,23,16.10
2015,09,23,15,24,16.10
2015,09,23,15,25,16.10
2015,09,23,15,26,16.10
2015,09,23,15,27,16.10
2015,09,23,15,28,16.00
2015,09,23,15,29,16.00
2015,09,23,15,30,16.00
2015,09,23,15,31,16.00
2015,09,23,15,32,15.90
2015,09,23,15,33,15.90
2015,09,23,15,34,15.90
2015,09,23,15,35,16.00
2015,09,23,15,36,16.00
2015,09,23,15,37,15.90
2015,09,23,15,38,15.90
2015,09,23,15,39,15.90
2015,09,23,15,40,15.90
2015,09,23,15,41,15.90
2015,09,23,15,42,15.90
2015,09,23,15,43,15.90
2015,09,23,15,44,15.90
2015,09,23,15,45,15.90
2015,09,23,15,46,15.90
2015,09,23,15,47,15.90
2015,09,23,15,48,15.90
2015,09,23,15,49,15.90
2015,09,23,15,50,15.90
2015,09,23,15,51,15.90
2015,09,23,15,52,15.90
2015,09,23,15,53,15.90
2015,09,23,15,54,15.90
2015,09,23,15,55,15.90
2015,09,23,15,56,15.90
2015,09,23,15,57,15.90
2015,09,23,15,58,15.90
2015,09,23,15,59,16.00
2015,09,23,16,00,16.00
2015,09,23,16,01,16.00
2015,09,23,16,02,16.00
2015,09,23,16,03,16.00
2015,09,23,16,04,16.10
2015,09,23,16,05,16.10
2015,09,23,16,06,16.10
2015,09,23,16,07,16.10
2015,09,23,16,08,16.10
2015,09,23,16,09,16.10
2015,09,23,16,10,16.10
2015,09,23,16,11,16.10
2015,09,23,16,12,16.10
2015,09,23,16,13,16.10
2015,09,23,16,14,16.10
2015,09,23,16,15,16.10
2015,09,23,16,16,16.10
2015,09,23,16,17,16.10
2015,09,23,16,18,16.10
2015,09,23,16,19,16.10
2015,09,23,16,20,16.10
2015,09,23,16,21,16.20
2015,09,23,16,22,16.20
2015,09,23,16,23,16.20
2015,09,23,16,24,16.20
2015,09,23,16,25,16.30
2015,09,23,16,26,16.30
2015,09,23,16,27,16.40
2015,09,23,16,28,16.40
2015,09,23,16,29,16.40
2015,09,23,16,30,16.40
2015,09,23,16,31,16.50
2015,09,23,16,32,16.60
2015,09,23,16,33,16.60
2015,09,23,16,34,16.60
2015,09,23,16,35,16.60
2015,09,23,16,36,16.60
2015,09,23,16,37,16.60
2015,09,23,16,38,16.70
2015,09,23,16,39,16.70
2015,09,23,16,40,16.70
2015,09,23,16,41,16.80
2015,09,23,16,42,16.70
2015,09,23,16,43,16.70
2015,09,23,16,44,16.70
2015,09,23,16,45,16.70
2015,09,23,16,46,16.70
2015,09,23,16,47,16.70
2015,09,23,16,48,16.70
2015,09,23,16,49,16.70
2015,09,23,16,50,16.80
2015,09,23,16,51,16.80
2015,09,23,16,52,16.80
2015,09,23,16,53,16.80
2015,09,23,16,54,16.80
2015,09,23,16,55,16.80
2015,09,23,16,56,16.80
2015,09,23,16,57,16.80
2015,09,23,16,58,16.80
2015,09,23,16,59,16.80
2015,09,23,17,00,16.70
2015,09,23,17,01,16.70
2015,09,23,17,02,16.70
2015,09,23,17,03,16.70
2015,09,23,17,04,16.60
2015,09,23,17,05,16.60
2015,09,23,17,06,16.60
2015,09,23,17,07,16.60
2015,09,23,17,08,16.60
2015,09,23,17,09,16.70
2015,09,23,17,10,16.70
2015,09,23,17,11,16.70
2015,09,23,17,12,16.70
2015,09,23,17,13,16.70
2015,09,23,17,14,16.70
2015,09,23,17,15,16.70
2015,09,23,17,16,16.70
2015,09,23,17,17,16.70
2015,09,23,17,18,16.70
2015,09,23,17,19,16.60
2015,09,23,17,20,16.60
2015,09,23,17,21,16.60
2015,09,23,17,22,16.60
2015,09,23,17,23,16.60
2015,09,23,17,24,16.60
2015,09,23,17,25,16.60
2015,09,23,17,26,16.60
2015,09,23,17,27,16.60
2015,09,23,17,28,16.60
2015,09,23,17,29,16.60
2015,09,23,17,30,16.60
2015,09,23,17,31,16.50
2015,09,23,17,32,16.60
2015,09,23,17,33,16.60
2015,09,23,17,34,16.60
2015,09,23,17,35,16.60
2015,09,23,17,36,16.60
2015,09,23,17,37,16.60
2015,09,23,17,38,16.60
2015,09,23,17,39,16.60
2015,09,23,17,40,16.60
2015,09,23,17,41,16.60
2015,09,23,17,42,16.60
2015,09,23,17,43,16.60
2015,09,23,17,44,16.60
2015,09,23,17,45,16.60
2015,09,23,17,46,16.60
2015,09,23,17,47,16.50
2015,09,23,17,48,16.50